Tracking 30116 objects as of 10-Feb-2025
HD Live streaming from Space Station
objects crossing your sky now

STARLINK-32704

Track STARLINK-32704 now!
10-day predictions
STARLINK-32704 is classified as:


NORAD ID: 62826
Int'l Code: 2025-018W
Perigee: 352.9 km
Apogee: 354.6 km
Inclination: 53.2 °
Period: 91.5 minutes
Semi major axis: 6724 km
RCS: Unknown
Launch date: January 24, 2025
Source: United States (US)
Launch site: AIR FORCE WESTERN TEST RANGE (AFWTR)
Your satellite tracking list
Your tracking list is empty




NASA's NSSDC Master Catalog

Two Line Element Set (TLE):
1 62826U 25018W   25041.58335648 -.01126726  00000-0 -85656-2 0  9993
2 62826  53.1580 339.8077 0001231  73.7652 141.0156 15.74309940  3971
Source of the keplerian elements: AFSPC